This demonstration page uses our WeatherBlox Daily Observations layout. Learn more.

Left ArrowRight Arrow

39.08367, -84.50855

Hourly Observations for March 28, 2018

Temp ( °F °C ) Dew Point ( °F °C ) Humidity (%) Winds ( mph kmh ) Pressure ( in mb ) Visibility ( mi km ) Precip ( " mm )
12:36 am 00:36 Cloudy with Light Rain 53 11.7 53 11.7 100 100 Calm 30.03 1017 1.25 2.011675 0.02 0.508
12:53 am 00:53 Cloudy with Light Rain 53 11.7 53 11.7 100 100 Calm 30.03 1017 1.5 2.41401 0.03 0.762
1:01 am 01:01 Cloudy with Light Rain 53 11.7 53 11.7 100 100 Calm 30.03 1017 1 1.60934 0.01 0.254
1:23 am 01:23 Cloudy with Light Rain 52 11.1 52 11.1 100 100 Calm 30.03 1017 0.75 1.207005 0.02 0.508
1:43 am 01:43 Cloudy with Light Rain 53 11.7 53 11.7 100 100 Calm 30.03 1017 1.25 2.011675 0.03 0.762
1:53 am 01:53 Cloudy with Light Rain 53 11.7 53 11.7 100 100 Calm 30.02 1017 2 3.21868 0.03 0.762
2:03 am 02:03 Cloudy with Light Rain 53 11.7 53 11.7 100 100 W 3 6 30.03 1017 2 3.21868 0.01 0.254
2:12 am 02:12 Cloudy with Light Rain 53 11.7 53 11.7 100 100 Calm 30.03 1017 1.5 2.41401 0.01 0.254
2:29 am 02:29 Cloudy with Light Rain 52 11.1 52 11.1 100 100 Calm 30 1016 0.75 1.207005 0.03 0.762
2:53 am 02:53 Mostly Cloudy with Light Rain 52 11.1 52 11.1 100 100 Calm 30 1016 0.75 1.207005 0.05 1.27
3:01 am 03:01 Cloudy with Light Rain 53 11.7 53 11.7 100 100 Calm 30 1016 1 1.60934 0.01 0.254
3:32 am 03:32 Cloudy with Light Rain 52 11.1 52 11.1 100 100 Calm 30 1016 1 1.60934 0.02 0.508
3:42 am 03:42 Cloudy with Light Rain 52 11.1 52 11.1 100 100 Calm 30 1016 0.75 1.207005 0.03 0.762
3:53 am 03:53 Cloudy with Light Rain 52 11.1 52 11.1 100 100 Calm 29.98 1015 0.75 1.207005 0.03 0.762
4:00 am 04:00 Cloudy with Light Rain 52 11.1 52 11.1 100 100 Calm 30 1016 1 1.60934 0.01 0.254
4:33 am 04:33 Cloudy with Mist and Fog 52 11.1 52 11.1 100 100 Calm 29.97 1015 1.5 2.41401 0.02 0.508
4:41 am 04:41 Cloudy with Mist and Fog 52 11.1 52 11.1 100 100 Calm 29.97 1015 0.75 1.207005 0.02 0.508
4:53 am 04:53 Cloudy with Mist and Fog 52 11.1 52 11.1 100 100 Calm 29.98 1015 0.75 1.207005 0.02 0.508
5:02 am 05:02 Cloudy with Mist and Fog 52 11.1 52 11.1 100 100 Calm 29.97 1015 1.25 2.011675 0 0
5:33 am 05:33 Mostly Cloudy with Rain 52 11.1 52 11.1 100 100 Calm 29.97 1015 0.75 1.207005 0.02 0.508
5:43 am 05:43 Mostly Cloudy with Light Rain 52 11.1 52 11.1 100 100 Calm 29.97 1015 1 1.60934 0.03 0.762
5:53 am 05:53 Cloudy with Light Rain 52 11.1 52 11.1 100 100 Calm 29.96 1015 1.75 2.816345 0.04 1.016
6:03 am 06:03 Cloudy with Light Rain 52 11.1 52 11.1 100 100 Calm 29.97 1015 1.25 2.011675 0 0.0254
6:18 am 06:18 Cloudy with Light Rain 52 11.1 52 11.1 100 100 Calm 29.97 1015 0.75 1.207005 0.01 0.254
6:29 am 06:29 Cloudy with Light Rain 51 10.6 51 10.6 100 100 Calm 29.97 1015 1 1.60934 0.01 0.254
6:53 am 06:53 Cloudy with Rain 51 10.6 51 10.6 100 100 Calm 29.98 1015 1.5 2.41401 0.04 1.016
7:17 am 07:17 Cloudy with Rain 52 11.1 52 11.1 100 100 Calm 30 1016 2.5 4.02335 0.07 1.778
7:25 am 07:25 Cloudy with Rain 52 11.1 52 11.1 100 100 Calm 29.97 1015 3 4.82802 0.09 2.286
7:33 am 07:33 Cloudy with Light Rain 52 11.1 52 11.1 100 100 ENE 3 6 29.97 1015 2 3.21868 0.1 2.54
7:53 am 07:53 Cloudy with Light Rain 52 11.1 52 11.1 100 100 Calm 29.98 1015 2 3.21868 0.12 3.048
8:12 am 08:12 Cloudy with Light Rain 52 11.1 52 11.1 100 100 Calm 29.97 1015 2 3.21868 0.01 0.254
8:19 am 08:19 Cloudy with Light Rain 52 11.1 52 11.1 100 100 Calm 29.97 1015 2 3.21868 0.01 0.254
8:45 am 08:45 Cloudy with Light Rain 53 11.7 53 11.7 100 100 Calm 29.97 1015 4 6.43736 0.01 0.254
8:53 am 08:53 Cloudy with Light Rain 53 11.7 53 11.7 100 100 NE 3 6 29.96 1015 4 6.43736 0.01 0.254
9:53 am 09:53 Cloudy with Light Rain 54 12.2 54 12.2 100 100 Calm 29.98 1015 5 8.0467 0.01 0.254
10:53 am 10:53 Cloudy with Light Rain 55 12.8 55 12.8 100 100 Calm 29.97 1015 5 8.0467 0.02 0.508
11:41 am 11:41 Cloudy with Light Rain 55 12.8 55 12.8 100 100 Calm 29.97 1015 8 12.87472 0 0.0254
11:53 am 11:53 Cloudy with Light Rain 56 13.3 56 13.3 100 100 Calm 29.98 1015 6 9.65604 0.01 0.254
12:15 pm 12:15 Cloudy with Rain 56 13.3 56 13.3 100 100 Calm 29.97 1015 2 3.21868 0.03 0.762
12:53 pm 12:53 Cloudy with Light Rain 56 13.3 56 13.3 100 100 Calm 29.96 1014 1.75 2.816345 0.12 3.048
1:00 pm 13:00 Cloudy with Light Rain 57 13.9 57 13.9 100 100 Calm 29.97 1015 2 3.21868 0 0.0254
1:11 pm 13:11 Cloudy with Light Rain 57 13.9 57 13.9 100 100 Calm 29.91 1013 2 3.21868 0 0.0254
1:53 pm 13:53 Cloudy with Light Rain 57 13.9 57 13.9 100 100 Calm 29.94 1014 2 3.21868 0.01 0.254
2:35 pm 14:35 Cloudy with Light Rain 58 14.4 58 14.4 100 100 S 3 6 29.91 1013 2 3.21868 0 0.0254
2:53 pm 14:53 Cloudy with Light Rain 58 14.4 58 14.4 100 100 S 5 7 29.91 1013 2 3.21868 0 0.0254
3:53 pm 15:53 Cloudy with Light Rain 58 14.4 58 14.4 100 100 Calm 29.91 1013 2 3.21868 0.01 0.254
4:53 pm 16:53 Cloudy with Light Rain 59 15 59 15 100 100 N 3 6 29.91 1013 2 3.21868 0.02 0.508
5:30 pm 17:30 Cloudy with Light Rain 59 15 59 15 100 100 Calm 29.91 1013 2 3.21868 0.02 0.508
5:43 pm 17:43 Cloudy with Light Rain 58 14.4 58 14.4 100 100 Calm 29.91 1013 2 3.21868 0.03 0.762
5:53 pm 17:53 Cloudy with Light Rain 58 14.4 58 14.4 100 100 Calm 29.91 1013 2 3.21868 0.03 0.762
6:53 pm 18:53 Cloudy with Mist and Fog 58 14.4 58 14.4 100 100 Calm 29.91 1013 2 3.21868 0.03 0.762
7:00 pm 19:00 Cloudy with Mist and Fog 58 14.4 58 14.4 100 100 Calm 29.91 1013 2 3.21868 0 0
7:38 pm 19:38 Cloudy with Mist and Fog 58 14.4 58 14.4 100 100 Calm 29.91 1013 2 3.21868 0 0
7:53 pm 19:53 Cloudy with Mist and Fog 57 13.9 57 13.9 100 100 Calm 29.91 1013 5 8.0467 0 0
8:22 pm 20:22 Cloudy with Mist and Fog 57 13.9 57 13.9 100 100 N 5 7 29.91 1013 3 4.82802 0 0.0254
8:53 pm 20:53 Cloudy with Mist and Fog 57 13.9 57 13.9 100 100 NNE 3 6 29.91 1013 3 4.82802 0 0.0254
9:08 pm 21:08 Cloudy with Mist and Fog 56 13.3 56 13.3 100 100 SE 3 6 29.94 1014 4 6.43736 0 0
9:53 pm 21:53 Cloudy with Mist and Fog 56 13.3 56 13.3 100 100 Calm 29.95 1014 5 8.0467 0.01 0.254
10:09 pm 22:09 Cloudy with Light Rain 56 13.3 56 13.3 100 100 Calm 29.94 1014 2 3.21868 0 0.0254
10:20 pm 22:20 Cloudy with Light Rain 56 13.3 56 13.3 100 100 Calm 29.94 1014 3 4.82802 0 0.0254
10:24 pm 22:24 Cloudy with Light Rain 55 12.8 55 12.8 100 100 NE 3 6 29.94 1014 1.75 2.816345 0 0.0254
10:38 pm 22:38 Cloudy with Mist and Fog 55 12.8 55 12.8 100 100 Calm 29.94 1014 2 3.21868 0 0.0254
10:53 pm 22:53 Cloudy with Mist and Fog 55 12.8 55 12.8 100 100 W 3 6 29.94 1014 2.5 4.02335 0 0.0254
11:53 pm 23:53 Cloudy with Mist and Fog 54 12.2 54 12.2 100 100 Calm 29.93 1013 1.5 2.41401 0 0

Powered by AerisWeather